Stations météo

réclame
Mon MeteoGroup
Brodersby-Schönhagen, Allemagne (10042): Température de l'air & dewpoint: 13.06.2019 17:00:00 - 19.06.2019 17:00:00 (CEST)Brodersby-Schönhagen, Allemagne (10042): Température de l'air 5cm & Température de l'air -5cm: 13.06.2019 17:00:00 - 19.06.2019 17:00:00 (CEST)Brodersby-Schönhagen, Allemagne (10042): Température de l'air -20cm & Température de l'air -100cm: 13.06.2019 17:00:00 - 19.06.2019 17:00:00 (CEST)Brodersby-Schönhagen, Allemagne (10042): Vitesse du vent & gusts: 13.06.2019 17:00:00 - 19.06.2019 17:00:00 (CEST)Brodersby-Schönhagen, Allemagne (10042): Direction du vent: 13.06.2019 17:00:00 - 19.06.2019 17:00:00 (CEST)Brodersby-Schönhagen, Allemagne (10042): reduced air pressure: 13.06.2019 17:00:00 - 19.06.2019 17:00:00 (CEST)Brodersby-Schönhagen, Allemagne (10042): visibility: 13.06.2019 17:00:00 - 19.06.2019 17:00:00 (CEST)Brodersby-Schönhagen, Allemagne (10042): Ensoleillement: 13.06.2019 17:00:00 - 19.06.2019 17:00:00 (CEST)Brodersby-Schönhagen, Allemagne (10042): Quantités de précipitations: 13.06.2019 17:00:00 - 19.06.2019 17:00:00 (CEST)
Date & Time tt [°C] td [°C] tt 5cm [°C] tt -5cm [°C] tt -20cm [°C] tt -100cm [°C] ff [km/h] ff [knt] fx [km/h] fx [knt] dd ppp [hPa] vv [km] sd [min] rr [mm]
19.06.2019 17:00:00 21,2 17,9 20,5 23,1 21,9 14,9 21 11 42 23 NW 1007,2 29 0 1,8
19.06.2019 16:00:00 20,5 17,1 20,7 25,8 21,7 14,9 24 13 33 18 ESE 1006,1 34 21 0,0
19.06.2019 15:00:00 21,5 17,7 25,4 27,4 21,0 14,8 10 5 16 9 ESE 1007,5 24 60 0,0
19.06.2019 14:00:00 20,9 17,3 24,6 26,3 20,4 14,8 10 5 19 11 ESE 1008,1 23 60 0,0
19.06.2019 13:00:00 19,7 16,3 23,8 24,9 19,8 14,8 13 7 27 15 ESE 1008,4 35 60 0,0
19.06.2019 12:00:00 19,5 16,2 22,7 23,7 19,2 14,8 21 11 27 15 ESE 1008,7 28 60 0,0
19.06.2019 11:00:00 20,1 17,4 23,0 22,5 18,7 14,8 19 10 26 14 E 1009,2 34 60 0,0
19.06.2019 10:00:00 19,5 17,1 21,7 20,9 18,3 14,8 14 7 20 11 NE 1009,6 35 49 0,0
19.06.2019 09:00:00 18,4 16,6 18,9 19,0 18,1 14,8 12 6 27 15 NW 1010,4 38 28 0,0
19.06.2019 08:00:00 17,4 16,1 16,9 17,9 18,1 14,7 21 11 28 15 NE 1009,7 22 4 2,1
19.06.2019 07:00:00 18,7 16,0 19,0 17,7 18,1 14,7 4 2 17 9 NNW 1010,7 50 35 0,0
19.06.2019 06:00:00 16,7 16,0 16,5 16,5 18,3 14,7 11 6 13 7 NNE 1010,6 41 19 0,0
19.06.2019 05:00:00 14,3 14,0 12,6 16,4 18,7 14,7 9 5 10 5 NE 1010,9 16 0 0,0
19.06.2019 04:00:00 14,2 14,0 12,4 16,9 19,0 14,7 3 2 4 2 NNW 1011,5 0,2 0 0,0
19.06.2019 03:00:00 14,8 14,6 14,0 17,3 19,4 14,7 1 1 5 3 NW 1011,9 0,6 0 0,0
19.06.2019 02:00:00 14,2 13,9 13,4 17,8 19,8 14,7 3 2 5 3 NW 1012,3 0,1 0 0,0
19.06.2019 01:00:00 15,3 14,9 14,4 18,5 20,2 14,7 4 2 7 4 NNW 1012,8 0,3 0 0,0
19.06.2019 00:00:00 16,0 15,4 14,9 19,3 20,6 14,7 6 3 8 4 NW 1013,1 7 0 0,0
18.06.2019 23:00:00 17,6 15,6 16,3 20,2 20,9 14,6 4 2 11 6 SSE 1013,3 28 0 0,0
18.06.2019 22:00:00 18,1 16,0 17,3 21,1 21,3 14,6 6 3 16 9 ESE 1013,0 29 7 0,0
18.06.2019 21:00:00 18,7 15,5 18,0 22,0 21,5 14,6 7 4 18 10 SE 1013,3 29 23 0,8
18.06.2019 20:00:00 20,0 16,7 20,3 22,4 21,8 14,6 8 4 22 12 ESE 1013,5 47 15 0,0
18.06.2019 19:00:00 19,2 17,7 18,7 22,8 22,2 14,6 3 1 17 9 SSE 1013,6 14 0 3,6
18.06.2019 18:00:00 20,1 15,6 19,9 24,6 22,4 14,6 13 7 41 22 NNW 1013,8 59 1 1,0
18.06.2019 17:00:00 21,4 17,5 23,2 27,5 22,2 14,6 17 9 22 12 E 1013,5 37 59 0,0
18.06.2019 16:00:00 22,0 17,2 23,8 27,5 21,9 14,6 14 8 21 11 E 1014,0 38 36 0,2
18.06.2019 15:00:00 22,0 15,8 19,9 28,3 21,3 14,6 7 4 32 17 S 1015,0 14 32 1,4
18.06.2019 14:00:00 21,6 17,2 26,2 29,2 20,4 14,6 14 7 18 10 ESE 1015,2 39 60 0,0
18.06.2019 13:00:00 22,7 18,5 26,6 27,1 19,5 14,6 10 5 16 9 ESE 1015,5 25 60 0,0
18.06.2019 12:00:00 21,3 17,3 25,0 24,5 18,8 14,6 11 6 14 7 ESE 1015,9 30 60 0,0
18.06.2019 11:00:00 21,4 16,9 25,1 22,8 18,2 14,5 9 5 15 8 ESE 1016,2 41 60 0,0
18.06.2019 10:00:00 20,5 15,6 22,3 20,8 17,8 14,5 13 7 16 9 SE 1016,5 47 48 0,0
18.06.2019 09:00:00 19,8 16,3 21,2 19,1 17,5 14,5 9 5 18 10 SE 1016,6 39 49 0,0
18.06.2019 08:00:00 19,0 15,5 20,7 17,7 17,4 14,5 13 7 20 11 SSE 1016,8 43 53 0,0
18.06.2019 07:00:00 17,6 14,8 17,2 16,5 17,5 14,5 11 6 17 9 SSE 1017,1 35 8 0,0
18.06.2019 06:00:00 17,0 15,2 16,2 16,1 17,7 14,5 8 5 13 7 S 1017,3 35 0 0,0
18.06.2019 05:00:00 16,7 15,0 15,0 16,2 17,9 14,5 8 4 18 10 SSE 1017,7 41 0 0,0
18.06.2019 04:00:00 17,0 14,9 15,7 16,5 18,2 14,5 14 8 24 13 SSE 1018,0 41 0 0,0
18.06.2019 03:00:00 16,6 14,8 15,3 16,7 18,6 14,5 14 8 21 12 SE 1018,4 48 0 0,0
18.06.2019 02:00:00 16,7 14,2 15,2 17,1 18,9 14,5 11 6 23 13 SSE 1018,8 57 0 0,0
18.06.2019 01:00:00 17,1 13,7 15,7 17,6 19,4 14,5 13 7 23 12 SSE 1019,0 56 0 0,0
18.06.2019 00:00:00 17,0 14,6 15,6 18,3 19,8 14,5 13 7 23 12 SSE 1019,1 56 0 0,0
17.06.2019 23:00:00 17,1 14,6 15,9 19,1 20,3 14,5 15 8 27 14 SE 1019,3 44 0 0,0
17.06.2019 22:00:00 17,6 14,6 16,6 20,4 20,7 14,5 22 12 27 15 ESE 1019,4 54 34 0,0
17.06.2019 21:00:00 17,8 15,2 17,5 22,2 21,0 14,5 16 9 21 11 E 1019,5 47 52 0,0
17.06.2019 20:00:00 18,7 15,2 19,4 23,7 21,1 14,5 18 10 23 12 ESE 1020,0 45 60 0,0
17.06.2019 19:00:00 19,4 15,4 20,8 24,9 21,1 14,5 21 11 24 13 ESE 1020,2 51 60 0,0
17.06.2019 18:00:00 19,6 15,4 21,6 25,4 20,9 14,5 20 11 23 13 ESE 1020,6 53 52 0,0
17.06.2019 17:00:00 18,7 15,8 19,3 25,6 20,7 14,5 15 8 24 13 ESE 1020,9 33 24 0,0
17.06.2019 16:00:00 20,1 15,0 21,4 26,5 20,2 14,5 12 7 19 10 E 1021,2 55 24 0,0
17.06.2019 15:00:00 23,3 13,4 28,2 26,8 19,4 14,5 14 7 22 12 W 1021,2 75 53 0,0
17.06.2019 14:00:00 22,8 13,5 26,9 25,0 18,7 14,4 16 8 27 15 W 1021,5 54 50 0,0
17.06.2019 13:00:00 22,2 13,9 25,8 23,4 18,0 14,4 18 10 33 18 WSW 1021,6 50 56 0,0
17.06.2019 12:00:00 21,3 13,4 24,0 21,7 17,4 14,4 22 12 34 18 SW 1021,7 37 54 0,0
17.06.2019 11:00:00 20,4 14,0 22,6 20,6 16,9 14,4 21 11 35 19 WSW 1021,8 47 53 0,0
17.06.2019 10:00:00 19,8 13,8 21,6 19,3 16,3 14,4 19 10 30 16 SW 1021,8 53 60 0,0
17.06.2019 09:00:00 18,8 14,1 20,9 17,5 15,9 14,4 13 7 21 11 SSW 1021,6 25 60 0,0
17.06.2019 08:00:00 16,7 13,3 18,2 15,5 15,8 14,4 10 6 15 8 SSW 1021,4 32 60 0,0
17.06.2019 07:00:00 14,9 13,1 14,8 14,0 15,9 14,4 5 3 9 5 SSW 1021,2 20 60 0,0
17.06.2019 06:00:00 12,4 12,0 12,3 13,5 16,2 14,4 6 3 9 5 SW 1021,3 6 46 0,0
17.06.2019 05:00:00 11,8 11,5 10,4 13,8 16,6 14,4 7 4 10 5 SSW 1021,2 1,6 0 0,0
17.06.2019 04:00:00 12,5 12,0 8,9 14,3 17,0 14,4 7 4 11 6 SW 1021,1 10 0 0,0
17.06.2019 03:00:00 11,9 11,6 10,2 15,0 17,3 14,4 9 5 11 6 WSW 1021,1 1,7 0 0,0
17.06.2019 02:00:00 13,7 13,3 12,0 15,8 17,6 14,4 6 3 9 5 WSW 1021,2 1,3 0 0,0
17.06.2019 01:00:00 14,0 13,4 12,6 16,4 18,0 14,4 8 4 13 7 WSW 1021,0 9 0 0,0
17.06.2019 00:00:00 15,1 14,3 14,1 17,1 18,3 14,4 8 4 10 5 SW 1020,9 10 0 0,0
16.06.2019 23:00:00 15,0 14,2 14,1 17,5 18,6 14,4 6 3 7 4 S 1020,7 21 0 0,0
16.06.2019 22:00:00 15,8 14,4 14,7 18,6 18,8 14,4 5 3 6 4 WSW 1020,2 29 0 0,0
16.06.2019 21:00:00 16,2 14,4 15,9 19,3 19,1 14,4 6 3 9 5 SSE 1020,2 46 17 0,0
16.06.2019 20:00:00 17,8 14,4 17,7 19,7 19,3 14,4 4 2 17 9 SW 1020,3 46 7 0,5
16.06.2019 19:00:00 17,2 13,5 15,6 20,6 19,4 14,4 10 6 17 9 SW 1020,2 32 0 0,2
16.06.2019 18:00:00 18,3 14,4 19,0 22,3 19,3 14,4 10 5 16 9 SE 1019,5 68 16 0,0
16.06.2019 17:00:00 20,3 12,7 22,2 22,9 19,0 14,4 9 5 16 8 SE 1019,8 63 18 0,0
16.06.2019 16:00:00 21,0 11,2 22,8 23,2 18,7 14,4 6 4 19 11 W 1019,9 53 35 0,0
16.06.2019 15:00:00 19,9 11,3 21,4 22,5 18,3 14,4 15 8 26 14 W 1019,8 51 34 0,0
16.06.2019 14:00:00 20,1 12,0 21,9 22,1 17,8 14,4 20 11 26 14 WSW 1019,6 54 45 0,0
16.06.2019 13:00:00 20,0 12,1 22,1 21,9 17,2 14,4 18 10 29 16 WSW 1019,3 70 43 0,0
16.06.2019 12:00:00 20,3 12,9 23,9 21,0 16,6 14,4 18 10 28 15 W 1019,0 62 48 0,0
16.06.2019 11:00:00 18,4 12,6 21,3 19,2 16,1 14,4 16 8 23 12 WSW 1018,6 44 49 0,0
16.06.2019 10:00:00 17,1 13,2 18,7 18,0 15,6 14,4 13 7 22 12 WSW 1018,4 52 55 0,0
16.06.2019 09:00:00 15,9 11,9 17,3 16,0 15,4 14,4 18 10 24 13 WSW 1018,2 54 60 0,0
16.06.2019 08:00:00 15,1 12,2 16,3 14,7 15,3 14,4 13 7 22 12 WSW 1017,7 60 60 0,0
16.06.2019 07:00:00 13,8 11,8 14,3 13,8 15,4 14,4 10 6 21 11 W 1017,1 36 53 0,0
16.06.2019 06:00:00 13,1 12,1 12,8 13,5 15,7 14,4 12 7 19 10 WSW 1016,8 15 35 0,0
16.06.2019 05:00:00 12,6 11,8 11,5 13,8 15,9 14,4 14 8 24 13 W 1016,0 13 0 0,0
16.06.2019 04:00:00 13,5 12,4 12,5 14,2 16,2 14,4 17 9 29 15 WSW 1015,8 22 0 0,0
16.06.2019 03:00:00 13,7 12,3 12,7 14,8 16,4 14,4 17 9 26 14 WSW 1015,7 32 0 0,0
16.06.2019 02:00:00 14,0 12,5 13,0 15,4 16,6 14,4 14 8 22 12 W 1015,3 38 0 0,0
16.06.2019 01:00:00 14,6 12,7 14,3 15,7 16,8 14,4 18 10 45 24 W 1015,3 58 0 0,0
16.06.2019 00:00:00 15,0 12,9 14,7 16,1 16,9 14,4 28 15 42 23 W 1014,5 57 0 0,0
15.06.2019 23:00:00 15,5 14,2 15,3 16,7 17,0 14,4 27 15 40 21 WSW 1013,7 20 0 0,0
15.06.2019 22:00:00 17,0 14,8 16,6 17,1 17,1 14,4 23 12 36 20 W 1012,0 48 7 0,0
15.06.2019 21:00:00 17,8 15,6 17,1 17,7 17,0 14,4 23 12 35 19 WSW 1011,1 54 44 0,0
15.06.2019 20:00:00 19,1 17,1 19,4 17,8 16,9 14,4 11 6 21 12 SW 1011,5 28 21 0,0
15.06.2019 19:00:00 16,4 15,7 16,6 17,0 16,9 14,4 13 7 16 9 SE 1011,7 19 0 0,0
15.06.2019 18:00:00 16,6 15,6 16,7 16,8 16,9 14,4 8 5 24 13 SE 1010,7 22 0 0,0
15.06.2019 17:00:00 16,6 15,3 16,2 16,5 17,0 14,3 16 9 28 15 SE 1010,4 18 0 8,1
15.06.2019 16:00:00 15,9 13,9 14,7 16,9 17,0 14,3 24 13 53 28 SE 1010,4 6 0 1,7
15.06.2019 15:00:00 16,9 13,7 15,8 17,1 17,0 14,3 37 20 55 30 E 1009,6 53 0 1,6
15.06.2019 14:00:00 16,9 14,1 15,7 16,8 17,1 14,3 25 13 44 24 ESE 1010,2 17 0 0,3
15.06.2019 13:00:00 17,6 14,2 16,6 17,1 17,1 14,3 29 16 41 22 SE 1009,8 19 0 0,0
15.06.2019 12:00:00 17,4 15,4 16,8 16,8 17,2 14,3 25 13 59 32 E 1009,0 17 0 0,2
15.06.2019 11:00:00 17,5 16,1 16,7 16,9 17,2 14,3 51 27 71 38 E 1008,0 10 0 1,4
15.06.2019 10:00:00 16,8 15,7 16,2 16,9 17,3 14,3 38 20 49 27 E 1009,9 7 0 1,9
15.06.2019 09:00:00 16,9 15,8 16,3 17,0 17,4 14,3 21 11 26 14 ENE 1011,0 16 0 0,6
15.06.2019 08:00:00 16,8 15,6 16,1 17,0 17,4 14,2 11 6 18 10 E 1012,2 13 0 0,3
15.06.2019 07:00:00 17,3 15,1 17,0 16,9 17,6 14,2 13 7 21 12 ENE 1012,2 42 0 0,0
15.06.2019 06:00:00 17,0 15,2 16,6 16,8 17,7 14,2 18 10 30 16 E 1012,6 34 0 0,0
15.06.2019 05:00:00 16,7 15,1 15,7 16,8 17,9 14,2 3 2 22 12 ENE 1012,7 36 0 0,0
15.06.2019 04:00:00 16,7 15,2 16,0 16,9 18,1 14,2 13 7 29 15 ENE 1013,5 34 0 0,0
15.06.2019 03:00:00 16,8 15,5 16,1 17,1 18,4 14,2 25 13 30 16 ENE 1014,1 30 0 0,0
15.06.2019 02:00:00 16,7 15,6 15,8 17,5 18,6 14,2 17 9 30 16 ENE 1014,9 24 0 0,0
15.06.2019 01:00:00 16,7 15,6 15,8 17,9 18,9 14,2 15 8 24 13 ENE 1015,3 20 0 0,0
15.06.2019 00:00:00 17,1 15,6 16,4 18,2 19,3 14,2 5 3 22 12 NE 1016,1 28 0 0,0
14.06.2019 23:00:00 17,1 15,1 16,0 18,6 19,6 14,2 16 9 20 11 ENE 1016,2 55 0 0,0
14.06.2019 22:00:00 16,7 14,4 15,6 19,8 20,0 14,2 14 8 19 10 ENE 1015,9 49 35 0,0
14.06.2019 21:00:00 19,5 15,2 18,9 21,4 20,1 14,2 6 3 14 8 NNW 1015,6 51 48 0,0
14.06.2019 20:00:00 20,3 14,8 21,4 21,7 20,2 14,2 12 7 25 13 S 1015,8 54 40 0,0
14.06.2019 19:00:00 18,9 14,9 19,2 22,2 20,3 14,2 16 9 24 13 E 1015,8 37 2 0,0
14.06.2019 18:00:00 19,9 15,0 21,2 23,3 20,3 14,1 16 8 41 22 NNW 1015,7 67 36 0,0
14.06.2019 17:00:00 19,6 14,7 19,7 23,5 20,2 14,1 17 9 39 21 SSE 1015,1 50 20 0,3
14.06.2019 16:00:00 19,7 15,9 23,2 24,7 19,9 14,1 21 11 30 16 E 1015,4 43 49 0,0
14.06.2019 15:00:00 18,8 15,5 20,0 22,9 19,7 14,1 18 10 30 16 E 1016,3 61 3 0,0
14.06.2019 14:00:00 18,9 15,3 20,3 24,8 19,2 14,1 26 14 32 17 E 1016,3 47 40 0,0
14.06.2019 13:00:00 19,3 15,0 23,6 24,7 18,5 14,1 15 8 21 11 E 1016,7 60 60 0,0
14.06.2019 12:00:00 19,2 15,3 23,3 23,5 17,8 14,1 11 6 14 8 E 1017,1 75 58 0,0
14.06.2019 11:00:00 18,8 12,7 21,2 21,3 17,2 14,1 9 5 20 11 ESE 1017,4 62 58 0,0
14.06.2019 10:00:00 18,8 13,2 20,0 19,6 16,7 14,1 13 7 21 11 SSE 1017,3 47 55 0,0
14.06.2019 09:00:00 17,4 13,2 19,8 17,8 16,4 14,1 12 7 19 11 SSE 1016,8 62 60 0,0
14.06.2019 08:00:00 17,2 13,4 18,9 16,0 16,3 14,1 5 3 13 7 SE 1016,4 48 29 0,0
14.06.2019 07:00:00 15,6 12,8 16,5 14,8 16,5 14,1 7 4 13 7 SSE 1015,8 63 50 0,0
14.06.2019 06:00:00 14,3 12,3 13,3 14,6 16,8 14,1 10 5 12 6 SSE 1015,7 48 28 0,0
14.06.2019 05:00:00 14,1 11,9 12,2 15,2 17,0 14,1 8 4 13 7 SSW 1015,6 44 0 0,0
14.06.2019 04:00:00 15,1 12,9 14,2 15,6 17,3 14,1 10 6 16 9 S 1015,3 72 0 0,0
14.06.2019 03:00:00 15,6 13,4 14,5 15,8 17,6 14,1 11 6 18 10 SSE 1015,1 66 0 0,0
14.06.2019 02:00:00 14,5 12,5 13,2 15,8 18,0 14,1 13 7 19 11 SE 1015,0 45 0 0,0
14.06.2019 01:00:00 13,2 12,0 11,9 16,7 18,4 14,0 8 4 34 19 W 1014,5 45 0 1,7
14.06.2019 00:00:00 15,8 13,8 14,7 17,4 18,9 14,0 13 7 18 10 SSE 1013,8 70 0 0,0
13.06.2019 23:00:00 16,1 14,1 14,7 18,2 19,3 14,0 8 5 18 10 SSE 1013,8 55 0 0,0
13.06.2019 22:00:00 16,1 13,9 15,2 19,6 19,6 14,1 14 8 20 11 ESE 1013,5 67 4 0,0
13.06.2019 21:00:00 17,2 13,9 17,2 21,1 19,9 14,1 14 8 19 10 E 1013,1 60 47 0,0
13.06.2019 20:00:00 18,4 11,2 19,1 22,3 19,9 14,1 13 7 19 10 SE 1012,7 35 23 0,0
13.06.2019 19:00:00 22,2 11,0 24,3 23,6 19,8 14,1 11 6 21 12 W 1012,5 72 51 0,0
13.06.2019 18:00:00 22,2 9,9 23,7 23,9 19,5 14,1 12 7 33 18 SW 1012,5 73 59 0,0
13.06.2019 17:00:00 22,6 10,8 24,5 23,5 19,3 14,1 16 8 37 20 SW 1012,5 51 45 0,0

tt = Température de l'air
td = dewpoint
tt 5cm = Température de l'air 5cm
tt -5cm = Température de l'air -5cm
tt -20cm = Température de l'air -20cm
tt -100cm = Température de l'air -100cm
ff = Vitesse du vent
fx = gusts
dd = Direction du vent
ppp = reduced air pressure
vv = visibility
sd = Ensoleillement
rr = Quantités de précipitations

stations d'obs. à proximité